Location: La Comballaz
(46.3780°N, 7.0817°E)
Time: 04:54:29
(UTC+00:00)

Envisat - Pass Details

Date: 08 December 2021
Orbit: 764 x 766 km, 98.2° (Epoch: 16 January)

Event Time Altitude Azimuth Distance (km) Brightness Sun altitude
Rises 06:21:52 0° 358° (N) 3,244 6.0 -6.9°
Reaches altitude 10° 06:25:17 10° 334° (NNW) 2,312 5.0 -6.4°
Maximum altitude 06:27:48 14° 304° (WNW) 2,043 4.6 -6.0°
Drops below altitude 10° 06:30:19 10° 274° (W) 2,305 4.9 -5.6°
Sets 06:33:43 0° 249° (WSW) 3,225 5.8 -5.1°
